Flag for Germany Weather past 2 weeks in Fürstenwalde/Spree, Brandenburg, Germany

Now
76 °F

Overcast.


Feels Like: 78 °F
Forecast: 67 / 78 °F
Wind: 5 mph from Northwest

Location: Lindenberg

Current Time: Jul 5, 2015 at 3:04:29 AM

Latest Report: Jul 5, 2015 at 2:00 AM


Visibility: 6 mi

Pressure: 30.06 "Hg

Humidity: 60%

Dew point: 62 °F

Location of Fürstenwalde/SpreeLocation

Historic Weather in Fürstenwalde/Spree — Graph

°F

Fürstenwalde/Spree temperature yesterday

Maximum temperature yesterday: 96 °F (at 4:00 PM)
Minimum temperature yesterday: 71 °F (at 6:00 AM)
Average temperature yesterday: 84 °F

Past Weeks' High & Low Weather Summary

 TemperatureHumidityPressure
High96 °F (Jul 4, 4:00 PM)98% (Jun 27, 10:00 PM)30.28 "Hg (Jun 27, 10:00 PM)
Low49 °F (Jun 24, 3:00 AM)24% (Jul 4, 6:00 PM)29.62 "Hg (Jun 23, 2:00 AM)
Average65 °F67%30.06 "Hg
* Reported Jun 20 2:00 AM — Jul 5 2:00 AM, Fürstenwalde/Spree, Weather by CustomWeather, © 2015

Note: Actual official high and low records may vary slightly from our data, if they occured in-between our weather recording intervals... More about our weather records

Advertising

Fürstenwalde/Spree weather history for previous 24 hours

 ConditionsComfort  
Time TempWeatherWind HumidityBarometerVisibility
2:00 AM
Sun, Jul 5
76 °FOvercast.5 mph60%30.06 "Hg6 mi
1:00 AM79 °FOvercast.2 mph52%30.06 "Hg6 mi
12:00 AM81 °FOvercast.2 mph45%30.03 "Hg6 mi
10:00 PM
Sat, Jul 4
86 °FOvercast.3 mph39%30.05 "Hg6 mi
9:00 PM88 °FOvercast.3 mph36%30.04 "Hg7 mi
8:00 PM90 °FOvercast.2 mph36%30.04 "Hg7 mi
7:00 PM93 °FOvercast.2 mph30%30.04 "Hg11 mi
6:00 PM96 °FScattered clouds.2 mph24%30.05 "Hg14 mi
4:00 PM96 °FPassing clouds.3 mph27%30.08 "Hg14 mi
3:00 PM95 °FPassing clouds.1 mph28%30.09 "Hg14 mi
2:00 PM93 °FPassing clouds.2 mph29%30.10 "Hg16 mi
1:00 PM92 °FPassing clouds.2 mph32%30.12 "Hg14 mi
12:00 PM90 °FPassing clouds.3 mph34%30.14 "Hg12 mi
11:00 AM88 °FPassing clouds.3 mph40%30.14 "Hg12 mi
10:00 AM84 °FPassing clouds.2 mph41%30.15 "Hg16 mi
9:00 AM79 °FSunny.2 mph48%30.16 "Hg16 mi
8:00 AM75 °FSunny.2 mph51%30.17 "Hg16 mi
7:00 AM72 °FSunny.3 mph54%30.17 "Hg12 mi
6:00 AM71 °FSunny.3 mph49%30.17 "Hg16 mi
4:00 AM74 °FPassing clouds.3 mph42%30.19 "Hg19 mi
3:00 AM74 °FPassing clouds.3 mph41%30.19 "Hg25 mi
Weather by CustomWeather, © 2015

See weather overviewHow to use our weather pages